contact:dominique.lefevre@mio.osupytheas.fr, maurice.libes@osupytheas.fr, didier.mallarino@osupytheas.fr
Project:EMSO http://www.emso-fr.org/EMSO-France
Depth: 2436.0 m
Title:EMSO Ligure Ouest : Data MII capteur MICROCAT
DateTime_Computer,Latitude,Longitude,Temperature,Conductivity,Pressure,DateTime_Instrument
DateTime_Computer,Latitude,Longitude,degC,S m-1,dbar,DateTime_Instrument
2022-10-05T00:02:28Z,42.805,6.029,13.3043,4.60079,2470.591,2022-10-05T02:04:23Z
2022-10-05T00:05:32Z,42.805,6.029,13.3047,4.60094,2470.6,2022-10-05T02:07:26Z
2022-10-05T00:08:35Z,42.805,6.029,13.3039,4.60078,2470.646,2022-10-05T02:10:29Z
2022-10-05T00:11:38Z,42.805,6.029,13.3045,4.60079,2470.624,2022-10-05T02:13:32Z
2022-10-05T00:14:41Z,42.805,6.029,13.3049,4.60074,2470.646,2022-10-05T02:16:35Z
2022-10-05T00:17:44Z,42.805,6.029,13.3048,4.60073,2470.624,2022-10-05T02:19:38Z
2022-10-05T00:20:47Z,42.805,6.029,13.3043,4.60069,2470.614,2022-10-05T02:22:41Z
2022-10-05T00:23:50Z,42.805,6.029,13.3046,4.60081,2470.6,2022-10-05T02:25:44Z
2022-10-05T00:26:53Z,42.805,6.029,13.3039,4.60080,2470.637,2022-10-05T02:28:48Z
2022-10-05T00:29:57Z,42.805,6.029,13.3044,4.60072,2470.614,2022-10-05T02:31:51Z
2022-10-05T00:33:00Z,42.805,6.029,13.3052,4.60070,2470.614,2022-10-05T02:34:54Z
2022-10-05T00:36:03Z,42.805,6.029,13.3047,4.60081,2470.637,2022-10-05T02:37:57Z
2022-10-05T00:39:06Z,42.805,6.029,13.3048,4.60077,2470.637,2022-10-05T02:41:00Z
2022-10-05T00:42:09Z,42.805,6.029,13.3042,4.60075,2470.624,2022-10-05T02:44:03Z
2022-10-05T00:45:12Z,42.805,6.029,13.3029,4.60084,2470.637,2022-10-05T02:47:06Z
2022-10-05T00:48:15Z,42.805,6.029,13.3063,4.60079,2470.624,2022-10-05T02:50:09Z
2022-10-05T00:51:18Z,42.805,6.029,13.3051,4.60094,2470.661,2022-10-05T02:53:12Z
2022-10-05T00:54:21Z,42.805,6.029,13.3056,4.60094,2470.6,2022-10-05T02:56:16Z
2022-10-05T00:57:25Z,42.805,6.029,13.3057,4.60097,2470.624,2022-10-05T02:59:19Z
2022-10-05T01:00:28Z,42.805,6.029,13.3048,4.60092,2470.637,2022-10-05T03:02:22Z
2022-10-05T01:03:31Z,42.805,6.029,13.3048,4.60094,2470.646,2022-10-05T03:05:25Z
2022-10-05T01:06:34Z,42.805,6.029,13.3058,4.60085,2470.646,2022-10-05T03:08:28Z
2022-10-05T01:09:37Z,42.805,6.029,13.3041,4.60084,2470.637,2022-10-05T03:11:31Z
2022-10-05T01:12:40Z,42.805,6.029,13.3051,4.60085,2470.684,2022-10-05T03:14:34Z
2022-10-05T01:15:43Z,42.805,6.029,13.3046,4.60077,2470.661,2022-10-05T03:17:37Z
2022-10-05T01:18:46Z,42.805,6.029,13.3047,4.60086,2470.591,2022-10-05T03:20:40Z
2022-10-05T01:21:49Z,42.805,6.029,13.3068,4.60079,2470.624,2022-10-05T03:23:44Z
2022-10-05T01:24:53Z,42.805,6.029,13.3048,4.60074,2470.646,2022-10-05T03:26:47Z
2022-10-05T01:27:56Z,42.805,6.029,13.3035,4.60067,2470.624,2022-10-05T03:29:50Z
2022-10-05T01:30:59Z,42.805,6.029,13.3047,4.60075,2470.6,2022-10-05T03:32:53Z
2022-10-05T01:34:02Z,42.805,6.029,13.3032,4.60072,2470.624,2022-10-05T03:35:56Z
2022-10-05T01:37:05Z,42.805,6.029,13.3040,4.60078,2470.637,2022-10-05T03:38:59Z
2022-10-05T01:40:08Z,42.805,6.029,13.3041,4.60084,2470.684,2022-10-05T03:42:02Z
2022-10-05T01:43:11Z,42.805,6.029,13.3043,4.60085,2470.646,2022-10-05T03:45:05Z
2022-10-05T01:46:14Z,42.805,6.029,13.3041,4.60079,2470.646,2022-10-05T03:48:09Z
2022-10-05T01:49:17Z,42.805,6.029,13.3050,4.60074,2470.637,2022-10-05T03:51:12Z
2022-10-05T01:52:21Z,42.805,6.029,13.3042,4.60082,2470.661,2022-10-05T03:54:15Z
2022-10-05T01:55:24Z,42.805,6.029,13.3037,4.60075,2470.624,2022-10-05T03:57:18Z
2022-10-05T01:58:27Z,42.805,6.029,13.3036,4.60079,2470.661,2022-10-05T04:00:21Z
2022-10-05T02:01:30Z,42.805,6.029,13.3042,4.60087,2470.624,2022-10-05T04:03:24Z
2022-10-05T02:04:33Z,42.805,6.029,13.3061,4.60074,2470.633,2022-10-05T04:06:27Z
2022-10-05T02:07:36Z,42.805,6.029,13.3045,4.60087,2470.661,2022-10-05T04:09:30Z
2022-10-05T02:10:39Z,42.805,6.029,13.3055,4.60077,2470.624,2022-10-05T04:12:33Z
2022-10-05T02:13:42Z,42.805,6.029,13.3047,4.60088,2470.67,2022-10-05T04:15:37Z
2022-10-05T02:16:46Z,42.805,6.029,13.3060,4.60077,2470.661,2022-10-05T04:18:40Z
2022-10-05T02:19:49Z,42.805,6.029,13.3041,4.60088,2470.661,2022-10-05T04:21:43Z
2022-10-05T02:22:52Z,42.805,6.029,13.3051,4.60082,2470.637,2022-10-05T04:24:46Z
2022-10-05T02:25:55Z,42.805,6.029,13.3066,4.60081,2470.624,2022-10-05T04:27:49Z
2022-10-05T02:28:58Z,42.805,6.029,13.3057,4.60087,2470.661,2022-10-05T04:30:52Z
2022-10-05T02:32:01Z,42.805,6.029,13.3043,4.60084,2470.684,2022-10-05T04:33:55Z
2022-10-05T02:35:04Z,42.805,6.029,13.3055,4.60084,2470.661,2022-10-05T04:36:58Z
2022-10-05T02:38:07Z,42.805,6.029,13.3050,4.60081,2470.693,2022-10-05T04:40:01Z
2022-10-05T02:41:10Z,42.805,6.029,13.3050,4.60092,2470.646,2022-10-05T04:43:05Z
2022-10-05T02:44:14Z,42.805,6.029,13.3053,4.60092,2470.646,2022-10-05T04:46:08Z
2022-10-05T02:47:17Z,42.805,6.029,13.3033,4.60110,2470.684,2022-10-05T04:49:11Z
2022-10-05T02:50:20Z,42.805,6.029,13.3048,4.60090,2470.67,2022-10-05T04:52:14Z
2022-10-05T02:53:23Z,42.805,6.029,13.3068,4.60081,2470.624,2022-10-05T04:55:17Z
2022-10-05T02:56:26Z,42.805,6.029,13.3067,4.60080,2470.624,2022-10-05T04:58:20Z
2022-10-05T02:59:29Z,42.805,6.029,13.3054,4.60090,2470.661,2022-10-05T05:01:23Z
2022-10-05T03:02:32Z,42.805,6.029,13.3056,4.60081,2470.67,2022-10-05T05:04:26Z
2022-10-05T03:05:35Z,42.805,6.029,13.3061,4.60091,2470.637,2022-10-05T05:07:30Z
2022-10-05T03:08:38Z,42.805,6.029,13.3063,4.60084,2470.661,2022-10-05T05:10:33Z
2022-10-05T03:11:42Z,42.805,6.029,13.3056,4.60085,2470.661,2022-10-05T05:13:36Z
2022-10-05T03:14:45Z,42.805,6.029,13.3048,4.60080,2470.661,2022-10-05T05:16:39Z
2022-10-05T03:17:48Z,42.805,6.029,13.3047,4.60094,2470.624,2022-10-05T05:19:42Z
2022-10-05T03:20:51Z,42.805,6.029,13.3049,4.60072,2470.661,2022-10-05T05:22:45Z
2022-10-05T03:23:54Z,42.805,6.029,13.3041,4.60087,2470.646,2022-10-05T05:25:48Z
2022-10-05T03:26:57Z,42.805,6.029,13.3041,4.60087,2470.646,2022-10-05T05:28:51Z
2022-10-05T03:30:00Z,42.805,6.029,13.3049,4.60084,2470.624,2022-10-05T05:31:54Z
2022-10-05T03:33:03Z,42.805,6.029,13.3054,4.60088,2470.646,2022-10-05T05:34:58Z
2022-10-05T03:36:07Z,42.805,6.029,13.3049,4.60093,2470.67,2022-10-05T05:38:01Z
2022-10-05T03:39:10Z,42.805,6.029,13.3036,4.60087,2470.646,2022-10-05T05:41:04Z
2022-10-05T03:42:13Z,42.805,6.029,13.3065,4.60096,2470.646,2022-10-05T05:44:07Z
2022-10-05T03:45:16Z,42.805,6.029,13.3055,4.60092,2470.661,2022-10-05T05:47:10Z
2022-10-05T03:48:19Z,42.805,6.029,13.3051,4.60081,2470.624,2022-10-05T05:50:13Z
2022-10-05T03:51:22Z,42.805,6.029,13.3048,4.60081,2470.646,2022-10-05T05:53:16Z
2022-10-05T03:54:25Z,42.805,6.029,13.3054,4.60098,2470.67,2022-10-05T05:56:19Z
2022-10-05T03:57:28Z,42.805,6.029,13.3067,4.60097,2470.67,2022-10-05T05:59:23Z
2022-10-05T04:00:31Z,42.805,6.029,13.3081,4.60081,2470.646,2022-10-05T06:02:26Z
2022-10-05T04:03:35Z,42.805,6.029,13.3066,4.60087,2470.646,2022-10-05T06:05:29Z
2022-10-05T04:06:38Z,42.805,6.029,13.3057,4.60095,2470.67,2022-10-05T06:08:32Z
2022-10-05T04:09:41Z,42.805,6.029,13.3055,4.60092,2470.67,2022-10-05T06:11:35Z
2022-10-05T04:12:44Z,42.805,6.029,13.3050,4.60087,2470.67,2022-10-05T06:14:38Z
2022-10-05T04:15:47Z,42.805,6.029,13.3063,4.60083,2470.684,2022-10-05T06:17:41Z
2022-10-05T04:18:50Z,42.805,6.029,13.3058,4.60093,2470.646,2022-10-05T06:20:44Z
2022-10-05T04:21:53Z,42.805,6.029,13.3050,4.60095,2470.624,2022-10-05T06:23:47Z
2022-10-05T04:24:56Z,42.805,6.029,13.3063,4.60094,2470.646,2022-10-05T06:26:51Z
2022-10-05T04:28:00Z,42.805,6.029,13.3047,4.60093,2470.624,2022-10-05T06:29:54Z
2022-10-05T04:31:03Z,42.805,6.029,13.3053,4.60077,2470.684,2022-10-05T06:32:57Z
2022-10-05T04:34:06Z,42.805,6.029,13.3039,4.60092,2470.624,2022-10-05T06:36:00Z
2022-10-05T04:37:09Z,42.805,6.029,13.3041,4.60074,2470.661,2022-10-05T06:39:03Z
2022-10-05T04:40:12Z,42.805,6.029,13.3036,4.60087,2470.661,2022-10-05T06:42:06Z
2022-10-05T04:43:15Z,42.805,6.029,13.3042,4.60082,2470.646,2022-10-05T06:45:09Z
2022-10-05T04:46:18Z,42.805,6.029,13.3045,4.60093,2470.624,2022-10-05T06:48:12Z
2022-10-05T04:49:21Z,42.805,6.029,13.3061,4.60097,2470.661,2022-10-05T06:51:16Z
2022-10-05T04:52:24Z,42.805,6.029,13.3052,4.60091,2470.637,2022-10-05T06:54:19Z
2022-10-05T04:55:28Z,42.805,6.029,13.3054,4.60069,2470.61,2022-10-05T06:57:22Z
2022-10-05T04:58:31Z,42.805,6.029,13.3076,4.60089,2470.661,2022-10-05T07:00:25Z
2022-10-05T05:01:34Z,42.805,6.029,13.3048,4.60094,2470.661,2022-10-05T07:03:28Z
2022-10-05T05:04:37Z,42.805,6.029,13.3055,4.60077,2470.661,2022-10-05T07:06:31Z
2022-10-05T05:07:40Z,42.805,6.029,13.3067,4.60074,2470.624,2022-10-05T07:09:34Z
2022-10-05T05:10:43Z,42.805,6.029,13.3041,4.60097,2470.637,2022-10-05T07:12:37Z
2022-10-05T05:13:46Z,42.805,6.029,13.3046,4.60097,2470.646,2022-10-05T07:15:40Z
2022-10-05T05:16:49Z,42.805,6.029,13.3058,4.60094,2470.624,2022-10-05T07:18:44Z
2022-10-05T05:19:52Z,42.805,6.029,13.3041,4.60081,2470.637,2022-10-05T07:21:47Z
2022-10-05T05:22:56Z,42.805,6.029,13.3042,4.60084,2470.637,2022-10-05T07:24:50Z
2022-10-05T05:25:59Z,42.805,6.029,13.3046,4.60079,2470.661,2022-10-05T07:27:53Z
2022-10-05T05:29:02Z,42.805,6.029,13.3048,4.60081,2470.624,2022-10-05T07:30:56Z
2022-10-05T05:32:05Z,42.805,6.029,13.3051,4.60093,2470.684,2022-10-05T07:33:59Z
2022-10-05T05:35:08Z,42.805,6.029,13.3049,4.60080,2470.614,2022-10-05T07:37:02Z
2022-10-05T05:38:11Z,42.805,6.029,13.3057,4.60094,2470.637,2022-10-05T07:40:05Z
2022-10-05T05:41:14Z,42.805,6.029,13.3048,4.60095,2470.67,2022-10-05T07:43:09Z
2022-10-05T05:44:17Z,42.805,6.029,13.3051,4.60101,2470.614,2022-10-05T07:46:12Z
2022-10-05T05:47:21Z,42.805,6.029,13.3051,4.60089,2470.624,2022-10-05T07:49:15Z
2022-10-05T05:50:24Z,42.805,6.029,13.3058,4.60092,2470.637,2022-10-05T07:52:18Z
2022-10-05T05:53:27Z,42.805,6.029,13.3040,4.60089,2470.637,2022-10-05T07:55:21Z
2022-10-05T05:56:30Z,42.805,6.029,13.3059,4.60081,2470.661,2022-10-05T07:58:24Z
2022-10-05T05:59:33Z,42.805,6.029,13.3058,4.60081,2470.646,2022-10-05T08:01:27Z
2022-10-05T06:02:36Z,42.805,6.029,13.3070,4.60095,2470.624,2022-10-05T08:04:30Z
2022-10-05T06:05:39Z,42.805,6.029,13.3041,4.60077,2470.624,2022-10-05T08:07:33Z
2022-10-05T06:08:42Z,42.805,6.029,13.3047,4.60090,2470.661,2022-10-05T08:10:37Z
2022-10-05T06:11:46Z,42.805,6.029,13.3038,4.60092,2470.646,2022-10-05T08:13:40Z
2022-10-05T06:14:49Z,42.805,6.029,13.3046,4.60084,2470.646,2022-10-05T08:16:43Z
2022-10-05T06:17:52Z,42.805,6.029,13.3051,4.60069,2470.6,2022-10-05T08:19:46Z
2022-10-05T06:20:55Z,42.805,6.029,13.3054,4.60090,2470.624,2022-10-05T08:22:49Z
2022-10-05T06:23:58Z,42.805,6.029,13.3047,4.60089,2470.661,2022-10-05T08:25:52Z
2022-10-05T06:27:01Z,42.805,6.029,13.3051,4.60092,2470.661,2022-10-05T08:28:55Z
2022-10-05T06:30:04Z,42.805,6.029,13.3048,4.60086,2470.6,2022-10-05T08:31:58Z
2022-10-05T06:33:07Z,42.805,6.029,13.3041,4.60101,2470.637,2022-10-05T08:35:02Z
2022-10-05T06:36:10Z,42.805,6.029,13.3039,4.60087,2470.624,2022-10-05T08:38:05Z
2022-10-05T06:39:14Z,42.805,6.029,13.3057,4.60099,2470.624,2022-10-05T08:41:08Z
2022-10-05T06:42:17Z,42.805,6.029,13.3048,4.60088,2470.6,2022-10-05T08:44:11Z
2022-10-05T06:45:20Z,42.805,6.029,13.3048,4.60101,2470.637,2022-10-05T08:47:14Z
2022-10-05T06:48:23Z,42.805,6.029,13.3057,4.60082,2470.6,2022-10-05T08:50:17Z
2022-10-05T06:51:26Z,42.805,6.029,13.3046,4.60086,2470.6,2022-10-05T08:53:20Z
2022-10-05T06:54:29Z,42.805,6.029,13.3043,4.60072,2470.624,2022-10-05T08:56:23Z
2022-10-05T06:57:32Z,42.805,6.029,13.3049,4.60079,2470.624,2022-10-05T08:59:26Z
2022-10-05T07:00:35Z,42.805,6.029,13.3057,4.60089,2470.637,2022-10-05T09:02:30Z
2022-10-05T07:03:38Z,42.805,6.029,13.3053,4.60081,2470.6,2022-10-05T09:05:33Z
2022-10-05T07:06:42Z,42.805,6.029,13.3046,4.60090,2470.637,2022-10-05T09:08:36Z
2022-10-05T07:09:45Z,42.805,6.029,13.3062,4.60098,2470.6,2022-10-05T09:11:39Z
2022-10-05T07:12:48Z,42.805,6.029,13.3062,4.60102,2470.614,2022-10-05T09:14:42Z
2022-10-05T07:15:51Z,42.805,6.029,13.3043,4.60113,2470.637,2022-10-05T09:17:45Z
2022-10-05T07:18:54Z,42.805,6.029,13.3047,4.60117,2470.6,2022-10-05T09:20:48Z
2022-10-05T07:21:57Z,42.805,6.029,13.3081,4.60084,2470.637,2022-10-05T09:23:51Z
2022-10-05T07:25:00Z,42.805,6.029,13.3062,4.60099,2470.6,2022-10-05T09:26:54Z
2022-10-05T07:28:03Z,42.805,6.029,13.3066,4.60094,2470.6,2022-10-05T09:29:58Z
2022-10-05T07:31:07Z,42.805,6.029,13.3057,4.60081,2470.6,2022-10-05T09:33:01Z
2022-10-05T07:34:10Z,42.805,6.029,13.3077,4.60099,2470.6,2022-10-05T09:36:04Z
2022-10-05T07:37:13Z,42.805,6.029,13.3080,4.60093,2470.614,2022-10-05T09:39:07Z
2022-10-05T07:40:16Z,42.805,6.029,13.3048,4.60105,2470.614,2022-10-05T09:42:10Z
2022-10-05T07:43:19Z,42.805,6.029,13.3070,4.60080,2470.637,2022-10-05T09:45:13Z
2022-10-05T07:46:22Z,42.805,6.029,13.3056,4.60099,2470.6,2022-10-05T09:48:16Z
2022-10-05T07:49:25Z,42.805,6.029,13.3056,4.60081,2470.586,2022-10-05T09:51:19Z
2022-10-05T07:52:28Z,42.805,6.029,13.3045,4.60104,2470.637,2022-10-05T09:54:23Z
2022-10-05T07:55:31Z,42.805,6.029,13.3049,4.60088,2470.577,2022-10-05T09:57:26Z
2022-10-05T07:58:35Z,42.805,6.029,13.3050,4.60080,2470.684,2022-10-05T10:00:29Z
2022-10-05T08:01:38Z,42.805,6.029,13.3054,4.60111,2470.577,2022-10-05T10:03:32Z
2022-10-05T08:04:41Z,42.805,6.029,13.3084,4.60076,2470.6,2022-10-05T10:06:35Z
2022-10-05T08:07:44Z,42.805,6.029,13.3056,4.60074,2470.6,2022-10-05T10:09:38Z
2022-10-05T08:10:47Z,42.805,6.029,13.3057,4.60079,2470.591,2022-10-05T10:12:41Z
2022-10-05T08:13:50Z,42.805,6.029,13.3045,4.60093,2470.591,2022-10-05T10:15:44Z
2022-10-05T08:16:53Z,42.805,6.029,13.3055,4.60075,2470.577,2022-10-05T10:18:47Z
2022-10-05T08:19:56Z,42.805,6.029,13.3045,4.60099,2470.6,2022-10-05T10:21:51Z
2022-10-05T08:23:00Z,42.805,6.029,13.3036,4.60101,2470.591,2022-10-05T10:24:54Z
2022-10-05T08:26:03Z,42.805,6.029,13.3043,4.60093,2470.614,2022-10-05T10:27:57Z
2022-10-05T08:29:06Z,42.805,6.029,13.3048,4.60113,2470.577,2022-10-05T10:31:00Z
2022-10-05T08:32:09Z,42.805,6.029,13.3047,4.60074,2470.6,2022-10-05T10:34:03Z
2022-10-05T08:35:12Z,42.805,6.029,13.3064,4.60084,2470.577,2022-10-05T10:37:06Z
2022-10-05T08:38:15Z,42.805,6.029,13.3068,4.60086,2470.577,2022-10-05T10:40:09Z
2022-10-05T08:41:18Z,42.805,6.029,13.3049,4.60078,2470.6,2022-10-05T10:43:12Z
2022-10-05T08:44:21Z,42.805,6.029,13.3056,4.60081,2470.577,2022-10-05T10:46:16Z
2022-10-05T08:47:24Z,42.805,6.029,13.3039,4.60086,2470.6,2022-10-05T10:49:19Z
2022-10-05T08:50:28Z,42.805,6.029,13.3042,4.60096,2470.6,2022-10-05T10:52:22Z
2022-10-05T08:53:31Z,42.805,6.029,13.3050,4.60075,2470.577,2022-10-05T10:55:25Z
2022-10-05T08:56:34Z,42.805,6.029,13.3037,4.60089,2470.577,2022-10-05T10:58:28Z
2022-10-05T08:59:37Z,42.805,6.029,13.3031,4.60069,2470.567,2022-10-05T11:01:31Z
2022-10-05T09:02:40Z,42.805,6.029,13.3043,4.60076,2470.577,2022-10-05T11:04:34Z
2022-10-05T09:05:43Z,42.805,6.029,13.3040,4.60072,2470.591,2022-10-05T11:07:37Z
2022-10-05T09:08:46Z,42.805,6.029,13.3033,4.60084,2470.577,2022-10-05T11:10:41Z
2022-10-05T09:11:49Z,42.805,6.029,13.3029,4.60087,2470.591,2022-10-05T11:13:44Z
2022-10-05T09:14:53Z,42.805,6.029,13.3036,4.60109,2470.637,2022-10-05T11:16:47Z
2022-10-05T09:17:56Z,42.805,6.029,13.3050,4.60071,2470.591,2022-10-05T11:19:50Z
2022-10-05T09:20:59Z,42.805,6.029,13.3038,4.60080,2470.6,2022-10-05T11:22:53Z
2022-10-05T09:24:02Z,42.805,6.029,13.3043,4.60097,2470.6,2022-10-05T11:25:56Z
2022-10-05T09:27:05Z,42.805,6.029,13.3041,4.60080,2470.577,2022-10-05T11:28:59Z
2022-10-05T09:30:08Z,42.805,6.029,13.3042,4.60088,2470.614,2022-10-05T11:32:02Z
2022-10-05T09:33:11Z,42.805,6.029,13.3044,4.60084,2470.577,2022-10-05T11:35:05Z
2022-10-05T09:36:14Z,42.805,6.029,13.3031,4.60080,2470.591,2022-10-05T11:38:09Z
2022-10-05T09:39:18Z,42.805,6.029,13.3056,4.60069,2470.614,2022-10-05T11:41:12Z
2022-10-05T09:42:21Z,42.805,6.029,13.3027,4.60072,2470.6,2022-10-05T11:44:15Z
2022-10-05T09:45:24Z,42.805,6.029,13.3034,4.60077,2470.624,2022-10-05T11:47:18Z
2022-10-05T09:48:27Z,42.805,6.029,13.3032,4.60078,2470.6,2022-10-05T11:50:21Z
2022-10-05T09:51:30Z,42.805,6.029,13.3038,4.60081,2470.6,2022-10-05T11:53:24Z
2022-10-05T09:54:33Z,42.805,6.029,13.3036,4.60097,2470.614,2022-10-05T11:56:27Z
2022-10-05T09:57:36Z,42.805,6.029,13.3026,4.60078,2470.577,2022-10-05T11:59:30Z
2022-10-05T10:00:39Z,42.805,6.029,13.3032,4.60082,2470.577,2022-10-05T12:02:34Z
2022-10-05T10:03:43Z,42.805,6.029,13.3036,4.60084,2470.577,2022-10-05T12:05:37Z
2022-10-05T10:06:46Z,42.805,6.029,13.3039,4.60084,2470.614,2022-10-05T12:08:40Z
2022-10-05T10:09:49Z,42.805,6.029,13.3037,4.60072,2470.553,2022-10-05T12:11:43Z
2022-10-05T10:12:52Z,42.805,6.029,13.3045,4.60096,2470.6,2022-10-05T12:14:46Z
2022-10-05T10:15:55Z,42.805,6.029,13.3037,4.60095,2470.591,2022-10-05T12:17:49Z
2022-10-05T10:18:58Z,42.805,6.029,13.3066,4.60067,2470.614,2022-10-05T12:20:52Z
2022-10-05T10:22:01Z,42.805,6.029,13.3037,4.60068,2470.6,2022-10-05T12:23:55Z
2022-10-05T10:25:04Z,42.805,6.029,13.3031,4.60079,2470.6,2022-10-05T12:26:59Z
2022-10-05T10:28:08Z,42.805,6.029,13.3036,4.60091,2470.591,2022-10-05T12:30:02Z
2022-10-05T10:31:11Z,42.805,6.029,13.3035,4.60071,2470.637,2022-10-05T12:33:05Z
2022-10-05T10:34:14Z,42.805,6.029,13.3039,4.60093,2470.567,2022-10-05T12:36:08Z
2022-10-05T10:37:17Z,42.805,6.029,13.3035,4.60069,2470.591,2022-10-05T12:39:11Z
2022-10-05T10:40:20Z,42.805,6.029,13.3044,4.60097,2470.614,2022-10-05T12:42:14Z
2022-10-05T10:43:23Z,42.805,6.029,13.3046,4.60114,2470.6,2022-10-05T12:45:17Z
2022-10-05T10:46:26Z,42.805,6.029,13.3040,4.60076,2470.614,2022-10-05T12:48:20Z
2022-10-05T10:49:29Z,42.805,6.029,13.3040,4.60070,2470.637,2022-10-05T12:51:24Z
2022-10-05T10:52:32Z,42.805,6.029,13.3043,4.60102,2470.6,2022-10-05T12:54:27Z
2022-10-05T10:55:36Z,42.805,6.029,13.3030,4.60089,2470.624,2022-10-05T12:57:30Z
2022-10-05T10:58:39Z,42.805,6.029,13.3027,4.60093,2470.6,2022-10-05T13:00:33Z
2022-10-05T11:01:42Z,42.805,6.029,13.3035,4.60088,2470.624,2022-10-05T13:03:36Z
2022-10-05T11:04:45Z,42.805,6.029,13.3043,4.60079,2470.6,2022-10-05T13:06:39Z
2022-10-05T11:07:48Z,42.805,6.029,13.3029,4.60106,2470.577,2022-10-05T13:09:42Z
2022-10-05T11:10:51Z,42.805,6.029,13.3030,4.60087,2470.614,2022-10-05T13:12:45Z
2022-10-05T11:13:54Z,42.805,6.029,13.3037,4.60096,2470.6,2022-10-05T13:15:49Z
2022-10-05T11:16:57Z,42.805,6.029,13.3024,4.60087,2470.624,2022-10-05T13:18:52Z
2022-10-05T11:20:01Z,42.805,6.029,13.3028,4.60089,2470.614,2022-10-05T13:21:55Z
2022-10-05T11:23:04Z,42.805,6.029,13.3040,4.60085,2470.637,2022-10-05T13:24:58Z
2022-10-05T11:26:07Z,42.805,6.029,13.3045,4.60079,2470.637,2022-10-05T13:28:01Z
2022-10-05T11:29:10Z,42.805,6.029,13.3050,4.60067,2470.6,2022-10-05T13:31:04Z
2022-10-05T11:32:13Z,42.805,6.029,13.3039,4.60067,2470.586,2022-10-05T13:34:07Z
2022-10-05T11:35:16Z,42.805,6.029,13.3043,4.60088,2470.624,2022-10-05T13:37:10Z
2022-10-05T11:38:19Z,42.805,6.029,13.3042,4.60084,2470.646,2022-10-05T13:40:14Z
2022-10-05T11:41:22Z,42.805,6.029,13.3056,4.60098,2470.646,2022-10-05T13:43:17Z
2022-10-05T11:44:26Z,42.805,6.029,13.3046,4.60084,2470.637,2022-10-05T13:46:20Z
2022-10-05T11:47:29Z,42.805,6.029,13.3051,4.60092,2470.624,2022-10-05T13:49:23Z
2022-10-05T11:50:32Z,42.805,6.029,13.3054,4.60137,2470.67,2022-10-05T13:52:26Z
2022-10-05T11:53:35Z,42.805,6.029,13.3057,4.60121,2470.661,2022-10-05T13:55:29Z
2022-10-05T11:56:38Z,42.805,6.029,13.3041,4.60094,2470.661,2022-10-05T13:58:32Z
2022-10-05T11:59:41Z,42.805,6.029,13.3059,4.60120,2470.661,2022-10-05T14:01:35Z
2022-10-05T12:02:44Z,42.805,6.029,13.3043,4.60090,2470.624,2022-10-05T14:04:39Z
2022-10-05T12:05:47Z,42.805,6.029,13.3032,4.60067,2470.624,2022-10-05T14:07:42Z
2022-10-05T12:08:51Z,42.805,6.029,13.3047,4.60083,2470.637,2022-10-05T14:10:45Z
2022-10-05T12:11:54Z,42.805,6.029,13.3047,4.60079,2470.661,2022-10-05T14:13:48Z
2022-10-05T12:14:57Z,42.805,6.029,13.3029,4.60119,2470.624,2022-10-05T14:16:51Z
2022-10-05T12:18:00Z,42.805,6.029,13.3038,4.60077,2470.646,2022-10-05T14:19:54Z
2022-10-05T12:21:03Z,42.805,6.029,13.3036,4.60084,2470.646,2022-10-05T14:22:57Z
2022-10-05T12:24:06Z,42.805,6.029,13.3042,4.60094,2470.637,2022-10-05T14:26:00Z
2022-10-05T12:27:09Z,42.805,6.029,13.3041,4.60073,2470.661,2022-10-05T14:29:03Z
2022-10-05T12:30:12Z,42.805,6.029,13.3040,4.60073,2470.693,2022-10-05T14:32:07Z
2022-10-05T12:33:15Z,42.805,6.029,13.3061,4.60091,2470.6,2022-10-05T14:35:10Z
2022-10-05T12:36:19Z,42.805,6.029,13.3038,4.60084,2470.684,2022-10-05T14:38:13Z
2022-10-05T12:39:22Z,42.805,6.029,13.3046,4.60114,2470.646,2022-10-05T14:41:16Z
2022-10-05T12:42:25Z,42.805,6.029,13.3056,4.60084,2470.637,2022-10-05T14:44:19Z
2022-10-05T12:45:28Z,42.805,6.029,13.3047,4.60087,2470.67,2022-10-05T14:47:22Z
2022-10-05T12:48:31Z,42.805,6.029,13.3074,4.60107,2470.67,2022-10-05T14:50:25Z
2022-10-05T12:51:34Z,42.805,6.029,13.3058,4.60093,2470.661,2022-10-05T14:53:28Z
2022-10-05T12:54:37Z,42.805,6.029,13.3054,4.60072,2470.661,2022-10-05T14:56:32Z
2022-10-05T12:57:40Z,42.805,6.029,13.3040,4.60081,2470.67,2022-10-05T14:59:35Z
2022-10-05T13:00:44Z,42.805,6.029,13.3043,4.60081,2470.684,2022-10-05T15:02:38Z
2022-10-05T13:03:47Z,42.805,6.029,13.3046,4.60097,2470.67,2022-10-05T15:05:41Z
2022-10-05T13:06:50Z,42.805,6.029,13.3045,4.60092,2470.67,2022-10-05T15:08:44Z
2022-10-05T13:09:53Z,42.805,6.029,13.3056,4.60088,2470.693,2022-10-05T15:11:47Z
2022-10-05T13:12:56Z,42.805,6.029,13.3059,4.60087,2470.684,2022-10-05T15:14:50Z
2022-10-05T13:15:59Z,42.805,6.029,13.3041,4.60107,2470.67,2022-10-05T15:17:53Z
2022-10-05T13:19:02Z,42.805,6.029,13.3035,4.60089,2470.693,2022-10-05T15:20:57Z
2022-10-05T13:22:05Z,42.805,6.029,13.3059,4.60081,2470.693,2022-10-05T15:24:00Z
2022-10-05T13:25:09Z,42.805,6.029,13.3058,4.60078,2470.684,2022-10-05T15:27:03Z
2022-10-05T13:28:12Z,42.805,6.029,13.3035,4.60092,2470.707,2022-10-05T15:30:06Z
2022-10-05T13:31:15Z,42.805,6.029,13.3037,4.60107,2470.684,2022-10-05T15:33:09Z
2022-10-05T13:34:18Z,42.805,6.029,13.3048,4.60101,2470.693,2022-10-05T15:36:12Z
2022-10-05T13:37:21Z,42.805,6.029,13.3045,4.60099,2470.754,2022-10-05T15:39:15Z
2022-10-05T13:40:24Z,42.805,6.029,13.3059,4.60089,2470.717,2022-10-05T15:42:18Z
2022-10-05T13:43:27Z,42.805,6.029,13.3043,4.60080,2470.73,2022-10-05T15:45:22Z
2022-10-05T13:46:30Z,42.805,6.029,13.3061,4.60077,2470.73,2022-10-05T15:48:25Z
2022-10-05T13:49:34Z,42.805,6.029,13.3056,4.60097,2470.73,2022-10-05T15:51:28Z
2022-10-05T13:52:37Z,42.805,6.029,13.3032,4.60080,2470.73,2022-10-05T15:54:31Z
2022-10-05T13:55:40Z,42.805,6.029,13.3036,4.60084,2470.707,2022-10-05T15:57:34Z
2022-10-05T13:58:43Z,42.805,6.029,13.3040,4.60074,2470.717,2022-10-05T16:00:37Z
2022-10-05T14:01:46Z,42.805,6.029,13.3050,4.60085,2470.73,2022-10-05T16:03:40Z
2022-10-05T14:04:49Z,42.805,6.029,13.3056,4.60068,2470.693,2022-10-05T16:06:43Z
2022-10-05T14:07:52Z,42.805,6.029,13.3048,4.60101,2470.754,2022-10-05T16:09:46Z
2022-10-05T14:10:55Z,42.805,6.029,13.3054,4.60086,2470.754,2022-10-05T16:12:50Z
2022-10-05T14:13:58Z,42.805,6.029,13.3061,4.60095,2470.717,2022-10-05T16:15:53Z
2022-10-05T14:17:02Z,42.805,6.029,13.3036,4.60104,2470.73,2022-10-05T16:18:56Z
2022-10-05T14:20:05Z,42.805,6.029,13.3044,4.60119,2470.717,2022-10-05T16:21:59Z
2022-10-05T14:23:08Z,42.805,6.029,13.3051,4.60106,2470.74,2022-10-05T16:25:02Z
2022-10-05T14:26:11Z,42.805,6.029,13.3058,4.60119,2470.74,2022-10-05T16:28:05Z
2022-10-05T14:29:14Z,42.805,6.029,13.3034,4.60097,2470.707,2022-10-05T16:31:08Z
2022-10-05T14:32:17Z,42.805,6.029,13.3054,4.60112,2470.717,2022-10-05T16:34:11Z
2022-10-05T14:35:20Z,42.805,6.029,13.3057,4.60094,2470.777,2022-10-05T16:37:15Z
2022-10-05T14:38:23Z,42.805,6.029,13.3065,4.60092,2470.726,2022-10-05T16:40:18Z
2022-10-05T14:41:27Z,42.805,6.029,13.3051,4.60088,2470.74,2022-10-05T16:43:21Z
2022-10-05T14:44:30Z,42.805,6.029,13.3046,4.60105,2470.754,2022-10-05T16:46:24Z
2022-10-05T14:47:33Z,42.805,6.029,13.3059,4.60111,2470.754,2022-10-05T16:49:27Z
2022-10-05T14:50:36Z,42.805,6.029,13.3076,4.60079,2470.74,2022-10-05T16:52:30Z
2022-10-05T14:53:39Z,42.805,6.029,13.3051,4.60085,2470.763,2022-10-05T16:55:33Z
2022-10-05T14:56:42Z,42.805,6.029,13.3048,4.60131,2470.763,2022-10-05T16:58:36Z
2022-10-05T14:59:45Z,42.805,6.029,13.3049,4.60089,2470.717,2022-10-05T17:01:40Z
2022-10-05T15:02:48Z,42.805,6.029,13.3043,4.60101,2470.8,2022-10-05T17:04:43Z